TimeEDT,TemperatureF,Dew PointF,Humidity,Sea Level PressureIn,VisibilityMPH,Wind Direction,Wind SpeedMPH,Gust SpeedMPH,PrecipitationIn,Events,Conditions,WindDirDegrees,DateUTC
12:53 AM,32.0,28.9,88,30.10,10.0,Calm,Calm,-,N/A,,Clear,0,2013-10-28 04:53:00
1:53 AM,30.0,28.0,92,30.10,10.0,Calm,Calm,-,N/A,,Clear,0,2013-10-28 05:53:00
2:53 AM,30.0,27.0,88,30.12,10.0,Calm,Calm,-,N/A,,Clear,0,2013-10-28 06:53:00
3:53 AM,28.9,27.0,92,30.14,10.0,Calm,Calm,-,N/A,,Clear,0,2013-10-28 07:53:00
4:53 AM,28.0,25.0,88,30.14,10.0,Calm,Calm,-,N/A,,Clear,0,2013-10-28 08:53:00
5:53 AM,28.0,26.1,92,30.16,9.0,Calm,Calm,-,N/A,,Clear,0,2013-10-28 09:53:00
6:53 AM,28.0,26.1,92,30.17,6.0,Calm,Calm,-,N/A,,Clear,0,2013-10-28 10:53:00
7:53 AM,28.0,25.0,88,30.19,9.0,Calm,Calm,-,N/A,,Clear,0,2013-10-28 11:53:00
8:53 AM,30.9,28.9,92,30.22,8.0,Calm,Calm,-,N/A,,Clear,0,2013-10-28 12:53:00
9:53 AM,42.1,37.9,85,30.24,10.0,Calm,Calm,-,N/A,,Clear,0,2013-10-28 13:53:00
10:53 AM,51.1,35.1,54,30.25,10.0,ESE,4.6,-,N/A,,Clear,120,2013-10-28 14:53:00
11:53 AM,53.1,34.0,48,30.26,10.0,SSE,4.6,-,N/A,,Clear,150,2013-10-28 15:53:00
12:53 PM,57.0,32.0,39,30.25,10.0,Variable,3.5,-,N/A,,Clear,0,2013-10-28 16:53:00
1:53 PM,57.9,28.9,33,30.24,10.0,Calm,Calm,-,N/A,,Clear,0,2013-10-28 17:53:00
2:53 PM,61.0,28.9,30,30.22,10.0,Calm,Calm,-,N/A,,Clear,0,2013-10-28 18:53:00
3:53 PM,61.0,28.0,29,30.22,10.0,Variable,3.5,-,N/A,,Clear,0,2013-10-28 19:53:00
4:53 PM,61.0,28.0,29,30.22,10.0,Calm,Calm,-,N/A,,Clear,0,2013-10-28 20:53:00
5:53 PM,62.1,28.9,29,30.23,10.0,Calm,Calm,-,N/A,,Clear,0,2013-10-28 21:53:00
6:53 PM,50.0,32.0,50,30.24,10.0,Calm,Calm,-,N/A,,Clear,0,2013-10-28 22:53:00
7:53 PM,44.1,34.0,68,30.27,10.0,Calm,Calm,-,N/A,,Clear,0,2013-10-28 23:53:00
8:53 PM,41.0,34.0,76,30.28,10.0,Calm,Calm,-,N/A,,Clear,0,2013-10-29 00:53:00
9:53 PM,37.9,34.0,86,30.29,10.0,Calm,Calm,-,N/A,,Clear,0,2013-10-29 01:53:00
10:53 PM,37.0,34.0,89,30.30,8.0,Calm,Calm,-,N/A,,Clear,0,2013-10-29 02:53:00
11:53 PM,35.1,32.0,89,30.31,9.0,Calm,Calm,-,N/A,,Clear,0,2013-10-29 03:53:00